Weather History for Elkins, WV

Change the Weather History Date:

Monday, November 26, 2012

  Actual Average Record
Temperature  
Mean Temperature 38 °F 38 °F  
Max Temperature 52 °F 49 °F 71 °F (1946)
Min Temperature 23 °F 28 °F 1 °F (1938)
Degree Days  
Heating Degree Days 27 27  
Month to date heating degree days 698 585  
Since 1 July heating degree days 1259 1176  
Cooling Degree Days 0 0  
Month to date cooling degree days 0 0  
Year to date cooling degree days 675 475  
Moisture  
Dew Point 23 °F    
Average Humidity 55    
Maximum Humidity 82    
Minimum Humidity 28    
Precipitation  
Precipitation T in 0.11 in 1.49 in (1900)
Month to date precipitation 0.26 2.90  
Year to date precipitation 41.92 42.19  
Snow  
Snow 0.00 in - - ()
Month to date snowfall 0.4  
Since 1 September snowfall 18.4  
Snow Depth 0.00 in    
Sea Level Pressure  
Sea Level Pressure 30.17 in    
Wind  
Wind Speed 2 mph (West)    
Max Wind Speed 12 mph    
Max Gust Speed 17 mph    
Visibility 10 miles    
Events Rain    
T = Trace of Precipitation, MM = Missing Value Source: NWS Daily Summary

Daily Weather History Graph

Daily Weather History Graph

Search for Another Location

Airport:

Trip Planner

Search our weather history database for the weather conditions in past years. The results will help you decide how hot, cold, wet, or windy it might be!

Date:

Astronomy

Nov. 26, 2012 Rise Set
Actual Time 7:14 AM EST 4:59 PM EST
Civil Twilight 6:45 AM EST 5:28 PM EST
Nautical Twilight 6:12 AM EST 6:01 PM EST
Astronomical Twilight 5:40 AM EST 6:33 PM EST
Moon 3:49 PM EST (11/26) 5:23 AM EST (11/26)
Length of Visible Light 10h 43m
Length of Day
9h 44m
Waxing Gibbous, 97% of the Moon is Illuminated
Nov 26
Waxing Gibbous
Nov 28
Full
Dec 6
Last Quarter
Dec 13
New
Dec 20
First Quarter

Hourly Weather History & Observations

Time (EST) Temp. Windchill Dew Point Humidity Pressure Visibility Wind Dir Wind Speed Gust Speed Precip Events Conditions
12:51 AM 37.0 °F - 17.1 °F 44% 30.07 in 10.0 mi Calm Calm - N/A   Clear
1:51 AM 41.0 °F 34.7 °F 17.1 °F 38% 30.07 in 10.0 mi West 10.4 mph 16.1 mph N/A   Overcast
2:51 AM 39.9 °F 37.8 °F 18.0 °F 41% 30.09 in 10.0 mi West 3.5 mph 17.3 mph N/A   Partly Cloudy
3:51 AM 37.0 °F 34.5 °F 18.0 °F 46% 30.10 in 10.0 mi Variable 3.5 mph - N/A   Clear
4:51 AM 30.0 °F - 21.0 °F 69% 30.11 in 10.0 mi Calm Calm - N/A   Partly Cloudy
5:51 AM 27.0 °F - 21.0 °F 78% 30.14 in 10.0 mi Calm Calm - N/A   Partly Cloudy
6:51 AM 26.1 °F - 19.9 °F 78% 30.16 in 10.0 mi Calm Calm - N/A   Clear
7:51 AM 25.0 °F - 19.9 °F 81% 30.19 in 8.0 mi Calm Calm - N/A   Clear
8:51 AM 34.0 °F - 23.0 °F 64% 30.20 in 10.0 mi Calm Calm - N/A   Clear
9:51 AM 42.1 °F 40.2 °F 19.9 °F 41% 30.20 in 10.0 mi South 3.5 mph - N/A   Clear
10:51 AM 46.0 °F - 21.9 °F 39% 30.20 in 10.0 mi Calm Calm - N/A   Clear
11:51 AM 48.0 °F - 23.0 °F 37% 30.20 in 10.0 mi West 10.4 mph - N/A   Clear
12:51 PM 50.0 °F - 21.9 °F 33% 30.18 in 10.0 mi West 6.9 mph - N/A   Clear
1:51 PM 50.0 °F - 21.0 °F 32% 30.15 in 10.0 mi WSW 5.8 mph - N/A   Clear
2:51 PM 52.0 °F - 19.0 °F 27% 30.14 in 10.0 mi Calm Calm - N/A   Clear
3:51 PM 50.0 °F - 19.9 °F 31% 30.16 in 10.0 mi NW 8.1 mph - N/A   Clear
4:51 PM 45.0 °F 42.6 °F 21.0 °F 39% 30.19 in 10.0 mi NNW 4.6 mph - N/A   Clear
5:51 PM 39.9 °F - 24.1 °F 53% 30.20 in 10.0 mi Calm Calm - N/A   Overcast
6:51 PM 39.9 °F - 26.1 °F 58% 30.22 in 10.0 mi Calm Calm - N/A   Overcast
7:51 PM 39.9 °F - 27.0 °F 60% 30.24 in 10.0 mi Calm Calm - N/A   Overcast
8:51 PM 37.9 °F - 32.0 °F 79% 30.24 in 10.0 mi Calm Calm - 0.00 in   Overcast
9:51 PM 39.0 °F - 34.0 °F 82% 30.22 in 10.0 mi Calm Calm - 0.00 in   Overcast
10:51 PM 39.0 °F - 34.0 °F 82% 30.20 in 10.0 mi Calm Calm - N/A   Overcast
11:51 PM 39.0 °F - 34.0 °F 82% 30.19 in 10.0 mi Calm Calm - 0.00 in Rain Light Rain